Regional Weather Roundup
Issued by NWS

Home | Current Version | Previous Version | Graphics & Text | Print | Product List | Glossary On
Versions: 1 2 3 4 5 6 7 8 9 10 11 12 13 14 15 16 17 18 19 20 21 22 23 24 25 26 27 28 29 30 31 32 33 34 35 36 37 38 39 40 41 42 43 44 45 46 47 48 49 50
000
ASUS43 KOAX 292010
RWRNE

WEATHER ROUNDUP FOR NEBRASKA
NATIONAL WEATHER SERVICE OMAHA NE
300 PM CDT SUN MAR 29 2015

NOTES: SATELLITE DATA IS BEING USED TO AUGMENT CLOUD COVER ABOVE
       12000 FEET.
       "FAIR" INDICATES FEW OR NO CLOUDS BELOW 12,000 FEET WITH NO
       SIGNIFICANT WEATHER AND/OR OBSTRUCTIONS TO VISIBILITY.

  * THESE STATIONS DO NOT REPORT WEATHER SUCH AS RAIN...SNOW OR FOG.

NEZ001>004-019>022-054>056-292100-
NEBRASKA PANHANDLE

CITY           SKY/WX    TMP DP  RH WIND       PRES   REMARKS
SCOTTSBLUFF    SUNNY     62  25  24 NW17G24   30.19F
ALLIANCE       SUNNY     60  24  25 NW20G26   30.17F
CHADRON        SUNNY     62  28  27 NW18G24   30.15F
KIMBALL        SUNNY     58  24  26 NW13G22   30.21F
SIDNEY         SUNNY     61  25  25 N13       30.22F
$$

NEZ057>060-069>072-079>082-292100-
SOUTHWEST NEBRASKA

CITY           SKY/WX    TMP DP  RH WIND       PRES   REMARKS
NORTH PLATTE   SUNNY     63  17  17 NW17G25   30.18S
IMPERIAL         N/A     62  23  22 N15G26    30.20F
LEXINGTON      SUNNY     64  10  12 N22G33    30.14F
MCCOOK         SUNNY     66  21  18 N21G30    30.17F
OGALLALA       SUNNY     62  24  24 NW15      30.21F
$$

NEZ005>010-023>029-035>040-094-292100-
NORTH CENTRAL NEBRASKA

CITY           SKY/WX    TMP DP  RH WIND       PRES   REMARKS
VALENTINE      SUNNY     59  18  20 NW22G29   30.14F
AINSWORTH      SUNNY     58  17  20 NW20G29   30.14S
BROKEN BOW     SUNNY     63  15  15 N23G33    30.13F
O`NEILL        SUNNY     59  24  26 N23G32    30.10S
ORD            SUNNY     62  13  14 N24G33    30.10F
THEDFORD       SUNNY     60  18  19 N16G28    30.16F
$$

NEZ041-046>049-061>064-073>077-083>087-292100-
SOUTH CENTRAL NEBRASKA

CITY           SKY/WX    TMP DP  RH WIND       PRES   REMARKS
GRAND ISLAND   SUNNY     62  25  24 N23G32    30.11R
AURORA         SUNNY     61  24  24 N28G39    30.10S
HASTINGS       SUNNY     64  23  21 N23G37    30.10
HEBRON         SUNNY     65  31  28 N26G35    30.07F
HOLDREGE       SUNNY     63   9  12 N17G31    30.13F
KEARNEY *      SUNNY     63  18  17 N30       30.12S
YORK           SUNNY     59  32  36 N16G24    30.09S
$$

NEZ011>018-030>034-042>045-292100-
NORTHEAST NEBRASKA

CITY           SKY/WX    TMP DP  RH WIND       PRES   REMARKS
NORFOLK        SUNNY     60  28  29 N24G31    30.05S
ALBION         SUNNY     59  24  25 N18G29    30.08F
BLAIR          MOSUNNY   58  35  43 NW18G35   30.03S
COLUMBUS *     SUNNY     61  34  36 NW25      30.08F
FREMONT        SUNNY     60  31  33 NW23G33   30.05F
TEKAMAH        SUNNY     61  34  36 W23G37    30.02F
WAYNE          SUNNY     60  27  28 N21G33    30.04S
$$

NEZ050>053-065>068-078-088>093-292100-
SOUTHEAST NEBRASKA

CITY           SKY/WX    TMP DP  RH WIND       PRES   REMARKS
LINCOLN        SUNNY     61  35  37 NW24G39   30.07F
OMAHA EPPLEY   MOSUNNY   60  37  42 NW23G32   30.01F
BEATRICE       SUNNY     61  37  41 N26G35    30.07S
FALLS CITY     MOSUNNY   62  40  44 NW26G38   30.02R
NEBRASKA CITY  PTSUNNY   57  36  45 NW22G32   30.04R
PLATTSMOUTH    MOSUNNY   57  34  41 NW23G31   30.03S
$$

NEZ044-045-051>053-067-292100-
OMAHA AREA

CITY           SKY/WX    TMP DP  RH WIND       PRES   REMARKS
OMAHA EPPLEY   MOSUNNY   60  37  42 NW23G32   30.01F
BLAIR          MOSUNNY   58  35  43 NW18G35   30.03S
FREMONT        SUNNY     60  31  33 NW23G33   30.05F
MILLARD        MOSUNNY   58  36  44 NW20G30   30.03F
OFFUTT AFB     MOSUNNY   59  37  45 NW22G33   30.02F
PLATTSMOUTH    MOSUNNY   57  34  41 NW23G31   30.03S
WAHOO          FAIR      60  32  34 NW17G30   30.05S
$$


USA.gov is the U.S. government's official web portal to all federal, state and local government web resources and services.